Zurück zum Katalog

STARLINK-37306

AktivKommunikationSSO
NORAD 68680·PAYLOAD·🇺🇸 United States

Gestartet Apr 11, 2026 von Vandenberg Space Force Base

Loading…

Nächste Überflüge (nächste 24 Stunden)

TLE

AktuellSource: CelesTrak SupGP

Epoche: Sep 15, 2026, 04:03 UTC

1 68680C 26077U   26258.16923611 -.00003058  00000+0 -94932-4 0  2588
2 68680  97.2850 128.1901 0001842 100.7304 104.3474 15.33436332    10

Verfolge STARLINK-37306 in Echtzeit mit AllMySat

Download on the App Store